Check out our new BloomSky Weather System.

Active alerts


No alerts


Thunder radar  blitzortung!


Rain radar more information rain snow radar


Visit our other weather sites:

Template documentation
and downloads

And another site



Weather Underground History page Text

Daily Summary for March 15, 2017 Units:  English    Metric   Both
« Previous Day
Next Day »
Daily Weekly Monthly Yearly Custom
  High: Low: Average:
Temperature: 69.3 °F 46.0 °F 56.7 °F
Dew Point: 55.8 °F 44.6 °F 50.3 °F
Humidity: 96 % 58 % 81 %
Wind Speed: 11.0 mph 0.0 mph 2.7 mph
Wind Gust: 16.0 mph - -
Wind:- - SE
Pressure: 30.36 in 30.21 in -
Precipitation: 0.00 in    
Historical Graphs
 
 
Tabular Data for March 15, 2017
Time Temperature Dew Point Pressure Wind Wind Speed Wind Gust Humidity Rainfall Rate (Hourly)
00:00 52.9 °F 47.5 °F 30.22 in Calm     82 % 0.00 in
00:05 52.5 °F 47.1 °F 30.23 in Calm     82 % 0.00 in
00:10 52.3 °F 47.3 °F 30.23 in Calm     83 % 0.00 in
00:15 52.2 °F 47.5 °F 30.23 in Calm     84 % 0.00 in
00:20 52.0 °F 47.7 °F 30.23 in Calm     85 % 0.00 in
00:25 51.6 °F 47.3 °F 30.23 in Calm     85 % 0.00 in
00:30 51.3 °F 46.9 °F 30.23 in Calm     85 % 0.00 in
00:35 51.1 °F 46.8 °F 30.23 in Calm     85 % 0.00 in
00:40 51.1 °F 47.1 °F 30.23 in Calm     86 % 0.00 in
00:45 50.9 °F 46.9 °F 30.23 in Calm     86 % 0.00 in
00:50 50.5 °F 46.8 °F 30.23 in Calm     87 % 0.00 in
00:55 50.5 °F 46.8 °F 30.23 in Calm     87 % 0.00 in
01:00 50.5 °F 47.1 °F 30.23 in Calm     88 % 0.00 in
01:05 50.5 °F 47.5 °F 30.23 in Calm     89 % 0.00 in
01:10 50.5 °F 47.5 °F 30.23 in Calm     89 % 0.00 in
01:15 50.4 °F 47.3 °F 30.23 in Calm     89 % 0.00 in
01:20 50.2 °F 47.1 °F 30.24 in Calm     89 % 0.00 in
01:25 50.2 °F 47.3 °F 30.24 in Calm     90 % 0.00 in
01:30 49.8 °F 46.9 °F 30.24 in Calm     90 % 0.00 in
01:35 49.8 °F 46.9 °F 30.24 in Calm     90 % 0.00 in
01:40 49.6 °F 47.1 °F 30.24 in Calm     91 % 0.00 in
01:45 49.5 °F 46.6 °F 30.24 in Calm     90 % 0.00 in
01:50 48.9 °F 46.0 °F 30.24 in Calm     90 % 0.00 in
01:56 48.9 °F 46.4 °F 30.24 in Calm     91 % 0.00 in
02:01 48.7 °F 46.2 °F 30.24 in Calm     91 % 0.00 in
02:06 48.6 °F 46.0 °F 30.24 in Calm     91 % 0.00 in
02:11 48.6 °F 46.4 °F 30.24 in Calm     92 % 0.00 in
02:16 48.7 °F 46.6 °F 30.24 in Calm     92 % 0.00 in
02:21 48.7 °F 46.8 °F 30.23 in Calm     93 % 0.00 in
02:26 48.7 °F 46.6 °F 30.23 in Calm     92 % 0.00 in
02:31 48.4 °F 45.9 °F 30.23 in Calm     91 % 0.00 in
02:36 47.8 °F 45.3 °F 30.23 in Calm     91 % 0.00 in
02:41 47.8 °F 45.7 °F 30.22 in Calm     92 % 0.00 in
02:46 47.7 °F 45.1 °F 30.22 in Calm     91 % 0.00 in
02:51 47.1 °F 44.6 °F 30.22 in Calm     91 % 0.00 in
02:56 47.5 °F 45.5 °F 30.22 in Calm     93 % 0.00 in
03:01 47.5 °F 45.5 °F 30.22 in Calm     93 % 0.00 in
03:06 47.5 °F 45.9 °F 30.22 in Calm     94 % 0.00 in
03:11 47.5 °F 45.5 °F 30.22 in Calm     93 % 0.00 in
03:16 47.5 °F 45.5 °F 30.23 in Calm     93 % 0.00 in
03:21 47.3 °F 45.3 °F 30.23 in Calm     93 % 0.00 in
03:26 47.5 °F 45.9 °F 30.22 in Calm     94 % 0.00 in
03:31 47.3 °F 45.7 °F 30.22 in Calm     94 % 0.00 in
03:36 47.7 °F 46.0 °F 30.22 in Calm     94 % 0.00 in
03:41 47.7 °F 46.0 °F 30.22 in Calm     94 % 0.00 in
03:46 47.5 °F 45.9 °F 30.22 in Calm     94 % 0.00 in
03:51 47.5 °F 45.9 °F 30.22 in Calm     94 % 0.00 in
03:56 47.3 °F 45.7 °F 30.22 in Calm     94 % 0.00 in
04:01 47.1 °F 45.5 °F 30.22 in Calm     94 % 0.00 in
04:06 46.9 °F 45.5 °F 30.22 in Calm     95 % 0.00 in
04:11 47.1 °F 45.7 °F 30.22 in Calm     95 % 0.00 in
04:16 46.9 °F 45.5 °F 30.22 in Calm     95 % 0.00 in
04:21 46.9 °F 45.5 °F 30.22 in Calm     95 % 0.00 in
04:26 46.9 °F 45.5 °F 30.22 in Calm     95 % 0.00 in
04:31 46.8 °F 45.3 °F 30.22 in Calm     95 % 0.00 in
04:36 46.6 °F 45.1 °F 30.22 in Calm     95 % 0.00 in
04:37 46.6 °F 45.1 °F 30.22 in Calm     95 % 0.00 in
04:42 46.2 °F 44.8 °F 30.21 in Calm     95 % 0.00 in
04:47 46.0 °F 44.6 °F 30.21 in Calm     95 % 0.00 in
04:52 46.0 °F 44.6 °F 30.21 in Calm     95 % 0.00 in
04:57 46.6 °F 45.5 °F 30.21 in Calm     96 % 0.00 in
05:02 46.8 °F 45.7 °F 30.22 in Calm   1.0 mph 96 % 0.00 in
05:07 46.8 °F 45.7 °F 30.22 in Calm   1.0 mph 96 % 0.00 in
05:12 46.6 °F 45.1 °F 30.22 in Calm   1.0 mph 95 % 0.00 in
05:17 46.4 °F 45.3 °F 30.22 in Calm   1.0 mph 96 % 0.00 in
05:22 46.6 °F 45.5 °F 30.22 in Calm   1.0 mph 96 % 0.00 in
05:27 46.8 °F 45.7 °F 30.22 in Calm   1.0 mph 96 % 0.00 in
05:32 46.8 °F 45.7 °F 30.22 in Calm   1.0 mph 96 % 0.00 in
05:37 46.8 °F 45.7 °F 30.22 in Calm   1.0 mph 96 % 0.00 in
05:42 46.8 °F 45.7 °F 30.22 in Calm   1.0 mph 96 % 0.00 in
05:47 46.8 °F 45.7 °F 30.22 in Calm   1.0 mph 96 % 0.00 in
05:52 46.8 °F 45.7 °F 30.22 in Calm   1.0 mph 96 % 0.00 in
05:57 46.8 °F 45.7 °F 30.23 in Calm   1.0 mph 96 % 0.00 in
06:02 46.9 °F 45.9 °F 30.23 in Calm   1.0 mph 96 % 0.00 in
06:07 46.8 °F 45.7 °F 30.23 in Calm   1.0 mph 96 % 0.00 in
06:12 46.9 °F 45.9 °F 30.23 in Calm   1.0 mph 96 % 0.00 in
06:17 46.9 °F 45.9 °F 30.23 in North 1.0 mph 1.0 mph 96 % 0.00 in
06:22 46.9 °F 45.9 °F 30.23 in Calm   1.0 mph 96 % 0.00 in
06:27 46.9 °F 45.9 °F 30.23 in Calm   1.0 mph 96 % 0.00 in
06:32 47.1 °F 46.0 °F 30.24 in Calm   2.0 mph 96 % 0.00 in
06:37 47.1 °F 46.0 °F 30.24 in Calm   2.0 mph 96 % 0.00 in
06:42 47.1 °F 46.0 °F 30.25 in Calm   2.0 mph 96 % 0.00 in
06:47 47.3 °F 46.2 °F 30.25 in Calm   2.0 mph 96 % 0.00 in
06:52 47.3 °F 46.2 °F 30.26 in Calm   3.0 mph 96 % 0.00 in
06:57 47.5 °F 46.4 °F 30.26 in Calm   3.0 mph 96 % 0.00 in
07:02 47.5 °F 46.4 °F 30.26 in Calm   3.0 mph 96 % 0.00 in
07:07 47.5 °F 46.4 °F 30.26 in Calm   4.0 mph 96 % 0.00 in
07:12 47.5 °F 46.4 °F 30.27 in Calm   4.0 mph 96 % 0.00 in
07:17 47.7 °F 46.6 °F 30.27 in NE 2.0 mph 4.0 mph 96 % 0.00 in
07:22 47.7 °F 46.6 °F 30.27 in NNW 1.0 mph 3.0 mph 96 % 0.00 in
07:27 47.7 °F 46.6 °F 30.27 in NNW 1.0 mph 5.0 mph 96 % 0.00 in
07:32 47.7 °F 46.6 °F 30.28 in NNE 3.0 mph 5.0 mph 96 % 0.00 in
07:37 47.8 °F 46.8 °F 30.28 in ENE 2.0 mph 5.0 mph 96 % 0.00 in
07:43 47.8 °F 46.8 °F 30.28 in NW 1.0 mph 5.0 mph 96 % 0.00 in
07:48 47.8 °F 46.8 °F 30.28 in East 1.0 mph 5.0 mph 96 % 0.00 in
07:50 47.8 °F 46.4 °F 30.29 in North 1.0 mph 5.0 mph 95 % 0.00 in
07:55 47.8 °F 46.4 °F 30.29 in NE 1.0 mph 6.0 mph 95 % 0.00 in
08:00 47.8 °F 46.4 °F 30.29 in NNE 2.0 mph 9.0 mph 95 % 0.00 in
08:05 47.8 °F 46.4 °F 30.29 in NNW 2.0 mph 9.0 mph 95 % 0.00 in
08:10 48.0 °F 46.6 °F 30.30 in NNE 3.0 mph 9.0 mph 95 % 0.00 in
08:15 48.4 °F 46.9 °F 30.30 in NNW 1.0 mph 7.0 mph 95 % 0.00 in
08:20 48.7 °F 47.3 °F 30.30 in East 3.0 mph 7.0 mph 95 % 0.00 in
08:25 48.7 °F 47.1 °F 30.30 in ENE 2.0 mph 7.0 mph 94 % 0.00 in
08:30 49.3 °F 47.7 °F 30.30 in East 1.0 mph 6.0 mph 94 % 0.00 in
08:35 49.5 °F 47.8 °F 30.30 in NW 1.0 mph 6.0 mph 94 % 0.00 in
08:40 49.8 °F 47.8 °F 30.31 in ENE 1.0 mph 6.0 mph 93 % 0.00 in
08:45 50.2 °F 48.0 °F 30.31 in ENE 3.0 mph 7.0 mph 92 % 0.00 in
08:50 50.5 °F 48.4 °F 30.31 in ENE 2.0 mph 7.0 mph 92 % 0.00 in
08:55 51.1 °F 48.6 °F 30.31 in East 1.0 mph 7.0 mph 91 % 0.00 in
09:00 51.4 °F 48.4 °F 30.32 in North 4.0 mph 7.0 mph 89 % 0.00 in
09:05 51.8 °F 48.7 °F 30.32 in East 2.0 mph 8.0 mph 89 % 0.00 in
09:10 52.2 °F 48.4 °F 30.32 in ESE 4.0 mph 9.0 mph 87 % 0.00 in
09:15 52.2 °F 48.0 °F 30.32 in ESE 6.0 mph 9.0 mph 86 % 0.00 in
09:20 52.5 °F 47.8 °F 30.32 in East 9.0 mph 9.0 mph 84 % 0.00 in
09:25 52.5 °F 47.8 °F 30.33 in North 2.0 mph 9.0 mph 84 % 0.00 in
09:30 53.2 °F 48.6 °F 30.33 in East 1.0 mph 9.0 mph 84 % 0.00 in
09:35 53.4 °F 48.0 °F 30.33 in ESE 7.0 mph 9.0 mph 82 % 0.00 in
09:40 53.4 °F 47.7 °F 30.33 in East 3.0 mph 9.0 mph 81 % 0.00 in
09:45 54.0 °F 48.0 °F 30.33 in Calm   9.0 mph 80 % 0.00 in
09:50 54.3 °F 48.2 °F 30.34 in SE 1.0 mph 9.0 mph 80 % 0.00 in
09:55 54.5 °F 48.2 °F 30.34 in East 5.0 mph 9.0 mph 79 % 0.00 in
10:00 54.3 °F 47.7 °F 30.34 in ESE 2.0 mph 9.0 mph 78 % 0.00 in
10:05 54.9 °F 48.6 °F 30.34 in ENE 2.0 mph 9.0 mph 79 % 0.00 in
10:10 55.6 °F 49.1 °F 30.34 in ENE 4.0 mph 9.0 mph 79 % 0.00 in
10:15 56.1 °F 48.7 °F 30.34 in NE 1.0 mph 9.0 mph 76 % 0.00 in
10:20 56.3 °F 48.9 °F 30.34 in ENE 1.0 mph 8.0 mph 76 % 0.00 in
10:25 56.8 °F 49.3 °F 30.34 in SE 2.0 mph 8.0 mph 76 % 0.00 in
10:30 57.6 °F 49.6 °F 30.34 in ENE 1.0 mph 6.0 mph 75 % 0.00 in
10:35 57.9 °F 49.6 °F 30.35 in East 2.0 mph 8.0 mph 74 % 0.00 in
10:41 58.1 °F 49.8 °F 30.35 in ENE 2.0 mph 9.0 mph 74 % 0.00 in
10:46 58.6 °F 50.0 °F 30.34 in East 6.0 mph 9.0 mph 73 % 0.00 in
10:51 59.0 °F 50.7 °F 30.35 in East 1.0 mph 9.0 mph 74 % 0.00 in
10:56 59.9 °F 51.3 °F 30.35 in East 8.0 mph 8.0 mph 73 % 0.00 in
11:01 60.1 °F 51.1 °F 30.35 in ESE 2.0 mph 8.0 mph 72 % 0.00 in
11:06 60.3 °F 51.6 °F 30.35 in ESE 1.0 mph 11.0 mph 73 % 0.00 in
11:11 60.4 °F 51.4 °F 30.35 in SE 10.0 mph 11.0 mph 72 % 0.00 in
11:16 60.4 °F 51.8 °F 30.35 in NE 4.0 mph 11.0 mph 73 % 0.00 in
11:21 61.0 °F 51.4 °F 30.35 in NNW 5.0 mph 11.0 mph 71 % 0.00 in
11:26 61.5 °F 52.7 °F 30.35 in East 5.0 mph 11.0 mph 73 % 0.00 in
11:27 61.5 °F 52.7 °F 30.35 in East 5.0 mph 11.0 mph 73 % 0.00 in
11:32 61.5 °F 52.3 °F 30.35 in East 3.0 mph 10.0 mph 72 % 0.00 in
11:37 61.9 °F 52.3 °F 30.35 in East 4.0 mph 11.0 mph 71 % 0.00 in
11:42 62.1 °F 52.2 °F 30.36 in ENE 5.0 mph 11.0 mph 70 % 0.00 in
11:47 62.2 °F 52.7 °F 30.36 in NW 2.0 mph 11.0 mph 71 % 0.00 in
11:52 63.3 °F 53.8 °F 30.35 in SE 4.0 mph 8.0 mph 71 % 0.00 in
11:57 62.8 °F 52.0 °F 30.35 in ESE 5.0 mph 7.0 mph 68 % 0.00 in
12:02 63.1 °F 53.2 °F 30.36 in East 6.0 mph 9.0 mph 70 % 0.00 in
12:07 63.3 °F 52.5 °F 30.36 in East 6.0 mph 9.0 mph 68 % 0.00 in
12:12 63.9 °F 54.0 °F 30.35 in SE 6.0 mph 11.0 mph 70 % 0.00 in
12:17 63.9 °F 53.1 °F 30.35 in SSE 6.0 mph 11.0 mph 68 % 0.00 in
12:22 64.6 °F 53.8 °F 30.35 in East 5.0 mph 11.0 mph 68 % 0.00 in
12:27 64.6 °F 53.4 °F 30.35 in SE 4.0 mph 9.0 mph 67 % 0.00 in
12:32 64.6 °F 52.9 °F 30.35 in ESE 11.0 mph 11.0 mph 66 % 0.00 in
12:37 64.6 °F 53.8 °F 30.35 in ESE 3.0 mph 11.0 mph 68 % 0.00 in
12:38 64.6 °F 53.8 °F 30.35 in East 3.0 mph 11.0 mph 68 % 0.00 in
12:43 64.8 °F 53.1 °F 30.35 in ESE 8.0 mph 11.0 mph 66 % 0.00 in
12:48 64.9 °F 53.8 °F 30.35 in ENE 2.0 mph 11.0 mph 67 % 0.00 in
12:53 64.9 °F 52.9 °F 30.35 in ENE 3.0 mph 10.0 mph 65 % 0.00 in
12:58 65.1 °F 54.3 °F 30.35 in NE 4.0 mph 10.0 mph 68 % 0.00 in
13:03 65.5 °F 53.4 °F 30.35 in SE 3.0 mph 10.0 mph 65 % 0.00 in
13:08 65.8 °F 54.5 °F 30.35 in ENE 3.0 mph 10.0 mph 67 % 0.00 in
13:13 66.4 °F 54.3 °F 30.35 in ESE 5.0 mph 9.0 mph 65 % 0.00 in
13:18 66.4 °F 54.7 °F 30.34 in ESE 4.0 mph 8.0 mph 66 % 0.00 in
13:23 66.7 °F 54.1 °F 30.35 in ENE 5.0 mph 9.0 mph 64 % 0.00 in
13:28 66.6 °F 54.0 °F 30.34 in WNW 3.0 mph 9.0 mph 64 % 0.00 in
13:33 66.9 °F 54.9 °F 30.34 in SSE 4.0 mph 10.0 mph 65 % 0.00 in
13:38 67.5 °F 55.2 °F 30.33 in SSW 2.0 mph 12.0 mph 65 % 0.00 in
13:43 67.5 °F 54.0 °F 30.33 in SE 3.0 mph 12.0 mph 62 % 0.00 in
13:48 67.3 °F 53.4 °F 30.33 in SE 5.0 mph 12.0 mph 61 % 0.00 in
13:53 67.6 °F 54.7 °F 30.33 in ENE 5.0 mph 10.0 mph 63 % 0.00 in
13:58 68.0 °F 54.0 °F 30.33 in SSE 3.0 mph 10.0 mph 61 % 0.00 in
14:03 67.6 °F 53.8 °F 30.33 in South 7.0 mph 10.0 mph 61 % 0.00 in
14:08 67.6 °F 54.1 °F 30.32 in SE 6.0 mph 10.0 mph 62 % 0.00 in
14:13 67.8 °F 53.4 °F 30.32 in SSE 5.0 mph 10.0 mph 60 % 0.00 in
14:15 67.8 °F 54.0 °F 30.32 in SSE 1.0 mph 10.0 mph 61 % 0.00 in
14:20 68.4 °F 53.4 °F 30.32 in NNE 5.0 mph 12.0 mph 59 % 0.00 in
14:25 68.4 °F 54.0 °F 30.32 in South 4.0 mph 12.0 mph 60 % 0.00 in
14:30 68.5 °F 53.2 °F 30.32 in ESE 4.0 mph 12.0 mph 58 % 0.00 in
14:35 68.4 °F 54.3 °F 30.32 in ESE 4.0 mph 9.0 mph 61 % 0.00 in
14:40 68.5 °F 54.1 °F 30.31 in ESE 3.0 mph 9.0 mph 60 % 0.00 in
14:45 69.1 °F 54.7 °F 30.31 in SSE 3.0 mph 10.0 mph 60 % 0.00 in
14:50 68.5 °F 55.0 °F 30.31 in South 6.0 mph 12.0 mph 62 % 0.00 in
14:55 68.4 °F 54.0 °F 30.31 in ESE 4.0 mph 12.0 mph 60 % 0.00 in
15:00 68.2 °F 55.6 °F 30.31 in ESE 9.0 mph 12.0 mph 64 % 0.00 in
15:05 68.5 °F 53.6 °F 30.31 in SSE 3.0 mph 13.0 mph 59 % 0.00 in
15:10 68.7 °F 54.3 °F 30.31 in East 8.0 mph 13.0 mph 60 % 0.00 in
15:15 68.7 °F 54.7 °F 30.31 in South 1.0 mph 13.0 mph 61 % 0.00 in
15:20 68.7 °F 53.8 °F 30.30 in SSE 5.0 mph 12.0 mph 59 % 0.00 in
15:25 68.7 °F 54.3 °F 30.30 in ESE 4.0 mph 14.0 mph 60 % 0.00 in
15:30 69.3 °F 55.8 °F 30.30 in East 2.0 mph 14.0 mph 62 % 0.00 in
15:35 68.5 °F 53.2 °F 30.30 in SE 3.0 mph 14.0 mph 58 % 0.00 in
15:40 68.0 °F 53.6 °F 30.30 in ESE 7.0 mph 12.0 mph 60 % 0.00 in
15:45 68.2 °F 53.8 °F 30.30 in ESE 6.0 mph 12.0 mph 60 % 0.00 in
15:50 68.9 °F 54.0 °F 30.30 in SE 6.0 mph 11.0 mph 59 % 0.00 in
15:55 69.1 °F 54.1 °F 30.30 in SE 9.0 mph 13.0 mph 59 % 0.00 in
16:00 68.7 °F 54.3 °F 30.30 in SE 7.0 mph 13.0 mph 60 % 0.00 in
16:05 68.5 °F 54.1 °F 30.30 in East 3.0 mph 16.0 mph 60 % 0.00 in
16:10 68.4 °F 54.0 °F 30.30 in SE 7.0 mph 16.0 mph 60 % 0.00 in
16:15 68.0 °F 54.5 °F 30.30 in ESE 5.0 mph 16.0 mph 62 % 0.00 in
16:20 67.6 °F 53.2 °F 30.30 in SSE 4.0 mph 14.0 mph 60 % 0.00 in
16:25 66.9 °F 53.1 °F 30.30 in SSE 8.0 mph 14.0 mph 61 % 0.00 in
16:30 66.9 °F 53.1 °F 30.29 in ESE 6.0 mph 13.0 mph 61 % 0.00 in
16:35 66.6 °F 53.1 °F 30.29 in East 3.0 mph 13.0 mph 62 % 0.00 in
16:40 66.6 °F 54.0 °F 30.29 in ESE 8.0 mph 12.0 mph 64 % 0.00 in
16:45 66.7 °F 53.2 °F 30.29 in ESE 5.0 mph 12.0 mph 62 % 0.00 in
16:46 66.7 °F 53.2 °F 30.29 in East 10.0 mph 12.0 mph 62 % 0.00 in
16:51 66.4 °F 53.4 °F 30.29 in East 3.0 mph 11.0 mph 63 % 0.00 in
16:56 66.4 °F 53.4 °F 30.29 in East 2.0 mph 11.0 mph 63 % 0.00 in
17:01 66.6 °F 53.6 °F 30.29 in SE 6.0 mph 10.0 mph 63 % 0.00 in
17:06 66.7 °F 53.8 °F 30.28 in SE 7.0 mph 12.0 mph 63 % 0.00 in
17:11 66.4 °F 53.4 °F 30.29 in ESE 9.0 mph 12.0 mph 63 % 0.00 in
17:16 66.4 °F 53.8 °F 30.28 in SE 4.0 mph 12.0 mph 64 % 0.00 in
17:21 66.7 °F 54.7 °F 30.28 in South 4.0 mph 11.0 mph 65 % 0.00 in
17:26 67.1 °F 54.5 °F 30.28 in SE 5.0 mph 11.0 mph 64 % 0.00 in
17:31 67.1 °F 53.6 °F 30.28 in South 3.0 mph 11.0 mph 62 % 0.00 in
17:36 66.9 °F 54.0 °F 30.28 in SE 5.0 mph 13.0 mph 63 % 0.00 in
17:41 66.6 °F 53.6 °F 30.28 in SE 7.0 mph 13.0 mph 63 % 0.00 in
17:46 66.2 °F 54.1 °F 30.28 in SE 5.0 mph 13.0 mph 65 % 0.00 in
17:51 66.0 °F 54.0 °F 30.28 in ESE 5.0 mph 11.0 mph 65 % 0.00 in
17:56 65.7 °F 54.0 °F 30.28 in SE 10.0 mph 11.0 mph 66 % 0.00 in
18:01 65.1 °F 54.0 °F 30.28 in SSE 5.0 mph 11.0 mph 67 % 0.00 in
18:06 64.9 °F 53.8 °F 30.28 in SE 5.0 mph 11.0 mph 67 % 0.00 in
18:11 64.8 °F 53.6 °F 30.29 in ESE 6.0 mph 11.0 mph 67 % 0.00 in
18:16 64.6 °F 53.8 °F 30.29 in ENE 7.0 mph 12.0 mph 68 % 0.00 in
18:21 64.6 °F 54.1 °F 30.29 in ESE 5.0 mph 12.0 mph 69 % 0.00 in
18:26 64.6 °F 54.1 °F 30.29 in East 4.0 mph 12.0 mph 69 % 0.00 in
18:31 64.2 °F 53.8 °F 30.29 in ESE 7.0 mph 12.0 mph 69 % 0.00 in
18:36 63.9 °F 54.0 °F 30.29 in SE 5.0 mph 12.0 mph 70 % 0.00 in
18:41 63.7 °F 54.1 °F 30.29 in SE 6.0 mph 13.0 mph 71 % 0.00 in
18:46 63.3 °F 54.1 °F 30.29 in East 3.0 mph 13.0 mph 72 % 0.00 in
18:51 63.1 °F 54.0 °F 30.29 in SE 6.0 mph 13.0 mph 72 % 0.00 in
18:56 63.1 °F 54.3 °F 30.29 in SSE 3.0 mph 11.0 mph 73 % 0.00 in
19:01 63.0 °F 54.1 °F 30.29 in ESE 8.0 mph 11.0 mph 73 % 0.00 in
19:06 62.4 °F 53.6 °F 30.29 in SE 4.0 mph 11.0 mph 73 % 0.00 in
19:12 62.2 °F 53.8 °F 30.29 in ESE 4.0 mph 11.0 mph 74 % 0.00 in
19:16 61.9 °F 53.8 °F 30.29 in SE 4.0 mph 11.0 mph 75 % 0.00 in
19:21 61.5 °F 53.6 °F 30.29 in SE 6.0 mph 10.0 mph 75 % 0.00 in
19:26 61.3 °F 53.8 °F 30.29 in SE 3.0 mph 10.0 mph 76 % 0.00 in
19:31 61.0 °F 53.8 °F 30.29 in ESE 5.0 mph 10.0 mph 77 % 0.00 in
19:37 60.6 °F 53.8 °F 30.29 in ESE 3.0 mph 10.0 mph 78 % 0.00 in
19:42 60.3 °F 53.4 °F 30.29 in ESE 6.0 mph 10.0 mph 78 % 0.00 in
19:47 60.1 °F 53.6 °F 30.29 in ESE 5.0 mph 11.0 mph 79 % 0.00 in
19:52 59.9 °F 53.4 °F 30.29 in SE 8.0 mph 11.0 mph 79 % 0.00 in
19:57 59.5 °F 53.4 °F 30.29 in SSE 3.0 mph 11.0 mph 80 % 0.00 in
20:02 59.4 °F 53.2 °F 30.29 in ESE 6.0 mph 11.0 mph 80 % 0.00 in
20:07 59.2 °F 53.4 °F 30.29 in SE 5.0 mph 12.0 mph 81 % 0.00 in
20:12 59.0 °F 53.2 °F 30.29 in SSE 7.0 mph 12.0 mph 81 % 0.00 in
20:17 58.8 °F 53.4 °F 30.29 in East 6.0 mph 12.0 mph 82 % 0.00 in
20:22 58.6 °F 53.2 °F 30.30 in SSE 4.0 mph 13.0 mph 82 % 0.00 in
20:27 58.6 °F 53.2 °F 30.30 in SE 4.0 mph 13.0 mph 82 % 0.00 in
20:32 58.5 °F 53.2 °F 30.29 in East 7.0 mph 13.0 mph 83 % 0.00 in
20:37 58.5 °F 53.2 °F 30.30 in SSE 5.0 mph 9.0 mph 83 % 0.00 in
20:42 58.3 °F 53.1 °F 30.30 in ESE 6.0 mph 9.0 mph 83 % 0.00 in
20:47 58.3 °F 53.1 °F 30.30 in SSE 1.0 mph 9.0 mph 83 % 0.00 in
20:52 57.9 °F 53.1 °F 30.30 in ESE 1.0 mph 7.0 mph 84 % 0.00 in
20:57 57.7 °F 52.9 °F 30.30 in ESE 7.0 mph 7.0 mph 84 % 0.00 in
21:02 57.6 °F 52.7 °F 30.30 in SE 2.0 mph 8.0 mph 84 % 0.00 in
21:07 57.6 °F 53.1 °F 30.30 in ESE 3.0 mph 8.0 mph 85 % 0.00 in
21:12 57.4 °F 52.9 °F 30.30 in SE 3.0 mph 8.0 mph 85 % 0.00 in
21:17 57.2 °F 52.7 °F 30.30 in SE 1.0 mph 6.0 mph 85 % 0.00 in
21:22 57.2 °F 53.1 °F 30.30 in ESE 5.0 mph 6.0 mph 86 % 0.00 in
21:27 57.0 °F 52.9 °F 30.30 in ENE 5.0 mph 7.0 mph 86 % 0.00 in
21:32 57.0 °F 52.9 °F 30.30 in ESE 7.0 mph 7.0 mph 86 % 0.00 in
21:37 56.8 °F 52.7 °F 30.30 in SE 2.0 mph 8.0 mph 86 % 0.00 in
21:42 56.7 °F 52.5 °F 30.30 in SSE 3.0 mph 8.0 mph 86 % 0.00 in
21:47 56.7 °F 52.9 °F 30.30 in ESE 2.0 mph 8.0 mph 87 % 0.00 in
21:52 56.7 °F 52.9 °F 30.30 in ESE 1.0 mph 7.0 mph 87 % 0.00 in
21:57 56.5 °F 52.7 °F 30.30 in SSE 2.0 mph 8.0 mph 87 % 0.00 in
22:02 56.5 °F 52.7 °F 30.30 in East 3.0 mph 8.0 mph 87 % 0.00 in
22:07 56.5 °F 52.7 °F 30.30 in East 1.0 mph 8.0 mph 87 % 0.00 in
22:12 56.3 °F 52.9 °F 30.30 in ESE 2.0 mph 7.0 mph 88 % 0.00 in
22:17 56.1 °F 52.7 °F 30.31 in SE 4.0 mph 7.0 mph 88 % 0.00 in
22:22 55.9 °F 52.5 °F 30.31 in South 2.0 mph 5.0 mph 88 % 0.00 in
22:27 55.9 °F 52.5 °F 30.31 in East 4.0 mph 5.0 mph 88 % 0.00 in
22:32 55.9 °F 52.5 °F 30.31 in ESE 2.0 mph 7.0 mph 88 % 0.00 in
22:37 55.8 °F 52.3 °F 30.31 in ESE 1.0 mph 7.0 mph 88 % 0.00 in
22:42 55.8 °F 52.3 °F 30.31 in SE 4.0 mph 7.0 mph 88 % 0.00 in
22:47 55.8 °F 52.3 °F 30.31 in Calm   8.0 mph 88 % 0.00 in
22:52 55.6 °F 52.2 °F 30.31 in East 5.0 mph 8.0 mph 88 % 0.00 in
22:57 55.6 °F 52.2 °F 30.31 in ESE 4.0 mph 8.0 mph 88 % 0.00 in
23:02 55.6 °F 52.2 °F 30.31 in SE 1.0 mph 7.0 mph 88 % 0.00 in
23:07 55.4 °F 52.0 °F 30.31 in Calm   7.0 mph 88 % 0.00 in
23:12 55.2 °F 51.8 °F 30.31 in SE 1.0 mph 6.0 mph 88 % 0.00 in
23:17 55.2 °F 52.0 °F 30.31 in ESE 3.0 mph 5.0 mph 89 % 0.00 in
23:22 55.2 °F 52.0 °F 30.31 in ESE 3.0 mph 5.0 mph 89 % 0.00 in
23:27 55.4 °F 52.2 °F 30.31 in East 2.0 mph 5.0 mph 89 % 0.00 in
23:32 55.6 °F 52.3 °F 30.31 in SE 2.0 mph 5.0 mph 89 % 0.00 in
23:37 55.6 °F 52.3 °F 30.31 in ESE 2.0 mph 5.0 mph 89 % 0.00 in
23:42 55.6 °F 52.3 °F 30.30 in ESE 1.0 mph 5.0 mph 89 % 0.00 in
23:47 55.6 °F 52.3 °F 30.30 in Calm   5.0 mph 89 % 0.00 in
23:52 55.8 °F 52.5 °F 30.30 in Calm   5.0 mph 89 % 0.00 in
23:57 55.8 °F 52.5 °F 30.30 in SE 1.0 mph 5.0 mph 89 % 0.00 in
Spring, Texas: Villages of Bridgestone
Compliments of Weather Underground - 2.75 mb

Script developed by  Jim McMurry - jmcmurry@mwt.net Adapted for the template by  Wim van der Kuil - Leuven-Template.eu

You find our weather info also at:

UK Metoffice

WeatherCloud

Weather Underground

Mid-South Weather Network

AWEKAS

Citizen Weather Observer Program (CWOP)

HAMweather, WeatherForYou, PWS Weather

Equipment we use:

Weather-station
Davis Vantage Vue

Weather-program
Meteohub

Weather-server
Debian 7.9 x86 (Guest)

Provider
DreamHost

Davis Vantage Vue

Meteohub

Debian 7.9 x86 (Guest)

DreamHost